This is the latest recevied weather packets stored in our database for station/object KE4LOJ. If no packets are shown the sender has not sent any weather packets the latest 10 day(s).
| Time | Temp. | Humidity | Pressure | Rain* | Wind** | Luminosity | Snow |
|---|---|---|---|---|---|---|---|
| 1777467436 | 21.67° C | 95% | 1019 hPa | 0 mm | - | 53 W/m² | - |
| 1777467131 | 21.11° C | 97% | 1018.9 hPa | 0 mm | - | 58 W/m² | - |
| 1777466829 | 20.56° C | 98% | 1018.7 hPa | 0 mm | - | 64 W/m² | - |
| 1777466526 | 20.56° C | 99% | 1018.8 hPa | 0 mm | - | 79 W/m² | - |
| 1777466223 | 20.56° C | 99% | 1018.5 hPa | 0 mm | - | 88 W/m² | - |
| 1777465919 | 20.56° C | 99% | 1018.3 hPa | 0 mm | - | 95 W/m² | - |
| 1777465615 | 20° C | 99% | 1018.4 hPa | 0 mm | - | 79 W/m² | - |
| 1777465310 | 20° C | 99% | 1018.2 hPa | 0 mm | - | 70 W/m² | - |
| 1777465004 | 20° C | 99% | 1018.1 hPa | 0 mm | - | 63 W/m² | - |
| 1777464699 | 20° C | 99% | 1018.2 hPa | 0 mm | - | 54 W/m² | - |
| 1777464397 | 20° C | 99% | 1018 hPa | 0 mm | - | 49 W/m² | - |
| 1777464093 | 19.44° C | 99% | 1018.1 hPa | 0 mm | - | 45 W/m² | - |
| 1777463792 | 19.44° C | 99% | 1017.8 hPa | 0 mm | - | 44 W/m² | - |
| 1777463487 | 19.44° C | 99% | 1018.1 hPa | 0 mm | - | 42 W/m² | - |
| 1777463183 | 19.44° C | 99% | 1017.7 hPa | 0 mm | - | 45 W/m² | - |
| 1777462879 | 18.89° C | 99% | 1017.8 hPa | 0 mm | - | 48 W/m² | - |
| 1777462576 | 18.89° C | 99% | 1017.9 hPa | 0 mm | - | 42 W/m² | - |
| 1777462271 | 18.33° C | 99% | 1017.7 hPa | 0 mm | - | 38 W/m² | - |
| 1777461967 | 17.78° C | 99% | 1017.8 hPa | 0 mm | - | 33 W/m² | - |
| 1777461665 | 17.78° C | 99% | 1017.5 hPa | 0 mm | - | 25 W/m² | - |
| 1777461365 | 17.78° C | 99% | 1017.4 hPa | 0 mm | - | 20 W/m² | - |
| 1777461061 | 17.22° C | 99% | 1017.6 hPa | 0 mm | - | 17 W/m² | - |
| 1777460757 | 17.22° C | 99% | 1017.3 hPa | 0 mm | - | 12 W/m² | - |
| 1777460453 | 17.22° C | 99% | 1017.4 hPa | 0 mm | - | 8 W/m² | - |
| 1777460148 | 17.22° C | 99% | 1017.2 hPa | 0 mm | - | 5 W/m² | - |
* Rain latest hour (hover to see other rain measurements)
** Current wind speed in m/s (hover to see current wind gust speed)